Hollywood, FL

9:32 PM EDT on October 19, 2019 (GMT -0400)
North Perry

Weather History for KHWO - August, 2019

Change the Weather History Date:

Thursday, August 1, 2019

  Actual Average (WUND) Record (WUND)
Temperature  
Mean Temperature 80 °F -  
Max Temperature 87 °F - - (-1)
Min Temperature 75 °F - - (-1)
Cooling Degree Days 16    
Growing Degree Days 30 (Base 50)    
Moisture  
Dew Point 74 °F    
Average Humidity 82    
Maximum Humidity 94    
Minimum Humidity 67    
Precipitation  
Precipitation 1.33 in - - ()
Sea Level Pressure  
Sea Level Pressure 30.01 in    
Wind  
Wind Speed 9 mph (East)    
Max Wind Speed 25 mph    
Max Gust Speed 33 mph    
Visibility 10 miles    
Events Rain , Thunderstorm    
Averages and records for this station are not official NWS values.
T = Trace of Precipitation, MM = Missing Value Source: NWS Daily Summary

Daily Weather History Graph

Daily Weather History Graph

Search for Another Location

Airport or City:

Astronomy

Aug. 01, 2019 Rise Set
Actual Time 6:46 AM EDT 8:07 PM EDT
Civil Twilight 6:22 AM EDT 8:32 PM EDT
Nautical Twilight 5:52 AM EDT 9:01 PM EDT
Astronomical Twilight 5:21 AM EDT 9:32 PM EDT
Moon 7:11 AM EDT (8/1) 8:55 PM EDT (8/1)
Length of Visible Light 14h 10m
Length of Day
13h 20m
New Moon, 0% of the Moon is Illuminated
Aug 1
New Moon
Aug 7
First Quarter
Aug 15
Full
Aug 23
Last Quarter
Aug 30
New

Hourly Weather History & Observations

Time (EDT) Temp. Heat Index Dew Point Humidity Pressure Visibility Wind Dir Wind Speed Gust Speed Precip Events Conditions
12:53 AM 82.9 °F 90.2 °F 75.0 °F 77% 30.03 in 10.0 mi ENE 13.8 mph 20.7 mph 0.00 in Rain Light Rain
1:25 AM 77.0 °F - 71.1 °F 82% 30.04 in 5.0 mi SE 25.3 mph 33.4 mph 0.39 in Rain , Thunderstorm Heavy Thunderstorms and Rain
1:51 AM 75.2 °F - 71.6 °F 89% 30.02 in 10.0 mi WSW 5.8 mph - 0.67 in Rain Light Rain
1:53 AM 75.9 °F - 71.1 °F 85% 30.02 in 10.0 mi SW 4.6 mph - 0.67 in Rain Light Rain
2:53 AM 77.0 °F - 73.0 °F 88% 29.98 in 10.0 mi NNE 3.5 mph - 0.00 in   Partly Cloudy
3:53 AM 80.1 °F 85.4 °F 75.9 °F 87% 29.99 in 10.0 mi SSE 4.6 mph - N/A   Partly Cloudy
4:23 AM 80.1 °F 84.5 °F 73.9 °F 81% 30.00 in 3.0 mi NNE 9.2 mph 20.7 mph 0.29 in Rain , Thunderstorm Heavy Thunderstorms and Rain
4:40 AM 81.0 °F 87.3 °F 75.9 °F 85% 29.99 in 10.0 mi East 4.6 mph - 0.30 in Rain , Thunderstorm Light Thunderstorms and Rain
4:51 AM 80.6 °F 85.4 °F 73.4 °F 79% 30.00 in 10.0 mi SSE 10.4 mph 20.7 mph 0.34 in Rain Light Rain
4:53 AM 80.1 °F 85.1 °F 75.0 °F 85% 30.00 in 10.0 mi SE 12.7 mph 20.7 mph 0.35 in Rain Rain
5:13 AM 77.0 °F - 72.0 °F 84% 30.00 in 7.0 mi East 12.7 mph - 0.20 in Rain , Thunderstorm Heavy Thunderstorms and Rain
5:53 AM 77.0 °F - 73.9 °F 90% 30.02 in 10.0 mi East 8.1 mph - 0.23 in Rain , Thunderstorm Light Rain
6:01 AM 77.0 °F - 73.9 °F 90% 30.01 in 10.0 mi East 3.5 mph - 0.02 in Rain Light Rain
6:53 AM 77.0 °F - 75.0 °F 94% 30.01 in 10.0 mi Calm Calm - 0.03 in   Scattered Clouds
7:53 AM 79.0 °F - 75.0 °F 88% 29.99 in 10.0 mi NNE 4.6 mph - 0.01 in   Mostly Cloudy
8:05 AM 79.0 °F - 75.9 °F 90% 29.99 in 10.0 mi NE 3.5 mph - N/A Thunderstorm Partly Cloudy
8:20 AM 80.1 °F 85.4 °F 75.9 °F 87% 30.00 in 10.0 mi ENE 3.5 mph - N/A   Clear
8:53 AM 82.0 °F 90.2 °F 77.0 °F 85% 30.01 in 10.0 mi East 4.6 mph - N/A   Partly Cloudy
9:53 AM 80.1 °F 84.2 °F 73.0 °F 79% 30.02 in 10.0 mi East 5.8 mph - 0.00 in   Mostly Cloudy
10:53 AM 82.9 °F 90.8 °F 75.9 °F 79% 30.03 in 10.0 mi ENE 3.5 mph - N/A   Clear
11:53 AM 86.0 °F 93.8 °F 73.9 °F 67% 30.03 in 10.0 mi East 12.7 mph - 0.00 in   Scattered Clouds
12:07 PM 81.0 °F 86.7 °F 75.0 °F 82% 30.05 in - SE 16.1 mph 24.2 mph 0.01 in Rain , Thunderstorm Light Thunderstorms and Rain
12:53 PM 79.0 °F - 75.0 °F 88% 30.04 in 10.0 mi SE 9.2 mph - 0.01 in Rain Light Rain
1:53 PM 79.0 °F - 73.9 °F 84% 30.01 in 10.0 mi SE 6.9 mph - 0.01 in Rain Light Rain
2:53 PM 81.0 °F 86.2 °F 73.9 °F 79% 30.01 in 10.0 mi SE 6.9 mph - 0.01 in Rain Light Rain
3:53 PM 81.0 °F 85.8 °F 73.0 °F 77% 30.01 in 10.0 mi East 4.6 mph - 0.00 in Rain Light Rain
4:53 PM 82.0 °F 87.4 °F 73.0 °F 74% 29.99 in 10.0 mi East 6.9 mph - 0.01 in   Clear
5:53 PM 82.9 °F 89.4 °F 73.9 °F 74% 29.98 in 10.0 mi ESE 6.9 mph - N/A   Partly Cloudy
6:53 PM 82.0 °F 87.4 °F 73.0 °F 74% 29.96 in 10.0 mi East 5.8 mph - N/A   Clear
7:53 PM 82.0 °F 87.4 °F 73.0 °F 74% 29.98 in 10.0 mi ENE 4.6 mph - N/A   Mostly Cloudy
8:53 PM 81.0 °F 86.2 °F 73.9 °F 79% 29.99 in 10.0 mi ENE 6.9 mph - N/A   Clear
9:53 PM 81.0 °F 86.7 °F 75.0 °F 82% 30.00 in 10.0 mi ENE 8.1 mph - N/A   Clear
10:53 PM 82.0 °F 87.9 °F 73.9 °F 76% 30.00 in 10.0 mi East 6.9 mph - N/A   Partly Cloudy
11:53 PM 82.0 °F 88.6 °F 75.0 °F 79% 30.00 in 10.0 mi ENE 5.8 mph - N/A   Scattered Clouds